Preview of NWS' New Version of Forecast
This preview is not operational and should not be used for support decisions.

Regional Weather Roundup (RWR)

Issued by National Weather Service (NWS)

                            
000
ASUS43 KTOP 180708
RWRKS 

WEATHER ROUNDUP FOR KANSAS
NATIONAL WEATHER SERVICE GOODLAND KS
100 AM CST MON FEB 18 2019

NOTE:  "FAIR" INDICATES FEW OR NO CLOUDS BELOW 12,000 FEET WITH NO
SIGNIFICANT WEATHER AND/OR OBSTRUCTIONS TO VISIBILITY.

KSZ001>006-013>018-027>032-041>047-180800-
NORTHWEST KANSAS
  
CITY           SKY/WX    TMP DP  RH WIND       PRES   REMARKS
GOODLAND       MOCLDY     7  -1  70 N9G21     30.21R                  
HAYS           CLEAR     12   6  77 N13       30.28R WCI  -3          
HILL CITY      CLEAR     10   3  73 N16G26    30.26F WCI  -7          
RUSSELL        CLEAR     12   6  77 N17       30.24F WCI  -5          
$$

KSZ061>065-074>080-084>089-180800-
SOUTHWEST KANSAS
  
CITY           SKY/WX    TMP DP  RH WIND       PRES   REMARKS
DODGE CITY     CLOUDY    14   8  77 N9        30.24R                  
ELKHART        FLURRIES  22  13  69 NE15      30.17R WCI   9          
GARDEN CITY    CLOUDY    15   5  64 NE21      30.22R WCI  -2          
GREAT BEND     CLEAR     13   7  77 N17       30.26R WCI  -4          
LIBERAL        CLOUDY    19  11  70 NE14      30.23R WCI   6          
PRATT          PTCLDY    16  10  78 N10       30.28R WCI   3          
$$

KSZ066>073-081>083-090>101-180800-
SOUTHEAST KANSAS
  
CITY           SKY/WX    TMP DP  RH WIND       PRES   REMARKS
CHANUTE        CLEAR     21  14  74 NW7       30.26S                  
COFFEYVILLE    CLEAR     22  15  75 N9        30.27S                  
HUTCHINSON     CLEAR     17   9  70 N13       30.24S WCI   4          
MEDICINE LODGE   N/A     18  10  71 N7        30.28R                  
NEWTON         CLEAR     14  10  84 N13       30.25R WCI   0          
PARSONS        CLEAR     20  15  81 N6        30.27S                  
WICHITA INTL   CLEAR     19  11  70 N10       30.26R WCI   7          
WICHITA JABRA  CLEAR     16   9  74 N12       30.25R WCI   3          
WICHITA MCCONL CLEAR     17  10  71 N9        30.25R                  
WINFIELD       CLEAR     17  10  74 N6        30.29R                  
$$

KSZ007>012-019>026-033>040-048>060-102>105-180800-
NORTHEAST KANSAS
  
CITY           SKY/WX    TMP DP  RH WIND       PRES   REMARKS
CONCORDIA      CLEAR     11   4  73 NW13      30.28R WCI  -4          
EMPORIA        CLEAR     16  12  84 NW12      30.24R WCI   3          
LAWRENCE       CLEAR     15  10  80 NW9       30.26R                  
MANHATTAN      CLEAR     15   9  76 CALM      30.29R                  
MARYSVILLE     CLEAR     12   9  85 NW14      30.27R WCI  -3          
OLATHE IND     CLEAR     16  11  80 W8        30.24R                  
OLATHE EXE     CLEAR     16  12  84 NW10      30.22R WCI   4          
SALINA         CLEAR     15   8  73 N17       30.28S WCI  -1          
TOPEKA BILLARD CLEAR     17  10  74 NW10      30.26R WCI   5          
TOPEKA FORBES  CLEAR     16  10  77 NW14      30.24R WCI   2          
$$